Starlink 4415

operational
NORAD ID: 53465 Int'l Des: 2022-099 Owner: SPXS Country: US Constellation: starlink
LEOCIRCULARRETROGRADESSO

About Starlink 4415

Description loading...

Live Position

Loading 3D Globe...

Upcoming Passes

Altitude History

Altitude vs Time

uPlot chart will show altitude changes over time

Two-Line Element Set

1 53465U 22099A 26066.09695691 .00002868 00000-0 20289-3 0 9998
2 53465 97.6036 188.6638 0000192 245.3229 114.7977 15.05652103195644
Epoch: Mar 7, 2026 • Age: 15 hours

Current Status

Altitude 562.5 km
Velocity 7.59 km/s
Sub-Earth Point 75.70°N, 120.99°E
Launch Date Aug 12, 2022
Age 3.5 years
Type internet

Technical Details

Classification Payload
Mass 300.00 kg
Dry Mass 275.00 kg
Total Mass 300.00 kg
Length 0.20 m
Diameter 2.80 m
Span 9.00 m
Shape Box + pan
Manufacturer SPXS
Bus Type Starlink
Phase Status In Orbit
Owner/State SPXS/US

Large Constellations

Loading constellations...